CZ-6A DEB, 54405

Orbit data source: Space-Track

CZ-6A DEB, 54405 is space debris in SSO originally from a launch on Fri, 11 Nov 2022 UTC launched from the Taiyaun Space Center, China (TSC). Debris objects in space refer to the collection of defunct objects orbiting the Earth. Examples of debris include non-operational satellites, rocket bodies, and fragments generated from explosions, collisions, or faulty payload assembly.

Loading next visibility...
Identifier
54405, 2022-151ED
Orbit
SSO
Country
Flag of CNCN / PRC
Related business
Manufacturer
SAST
Mission
Spacecraft
Bus & Motor
Unknown
Mass
Unknown
Launch date (UTC)
2022-11-11 (4 years ago)
Launch vehicle
Unknown
Launch site
Taiyaun Space Center, China (TSC)
Object type
Payload
Rocket body
Debris
Shape & HBR
Unknown shape, 0.4 m
Radar Cross Section
Medium (>0.1 m² and <1 m²)

Expand to show TLE details & history
Last TLE update: 2 days ago

TLE from 2 days ago
0 CZ-6A DEB
1 54405U 22151ED  26171.32252264  .00003070  00000-0  48132-3 0  9993
2 54405  98.6776 267.7560 0140578 195.5922 164.0929 14.67065364191772
Epoch: 2026-06-20T07:44Z
TLE epoch observation values (Epoch: 2026-06-20T07:44:25.956Z)
Latitude
-0.00005°
Longitude
-116.89095°
Altitude
768.848 km
Speed
7.419 km/s
True Right ascension
17h 51m 01s
True Declination
0° 00' 00"
Sunlit
Object was in full shadow at epoch
Visualization orbit readout
Latitude
Unknown
Longitude
Unknown
Altitude
Unknown
Speed
Unknown
Apparent Right ascension
Unknown
Apparent Declination
Unknown
Sunlit
N/A
Visualization observer readout
Local Sidereal Time
21:29:36
Azimuth
Unknown
Elevation
Unknown
Doppler factor
Unknown
Orbital elements
Apogee altitude
766.593 km
Perigee altitude
568.499 km
Semi-major axis
7,045.683 km
Eccentricity
0.01406
Inclination
98.6776°
RAAN
267.756°
Arg. of periapsis
195.5922°
True anomaly
164.52707°
Mean anomaly
164.0929°
Eccentric anomaly
164.31071°
Mean motion
3.66994 °/min
Orbital period
98.09 mins
BSTAR
0.00048132
Loading maneuver chart data...
Computing Atmospheric mass density...
Loading historical data...
Loading historical data...
Loading historical data...
Loading historical data...
Loading historical data...
Loading historical data...
Loading historical data...

Documentation

Showing up to 5 results
|